Regional Weather Roundup
Issued by NWS

Home | Current Version | Previous Version | Text Only | Print | Product List | Glossary Off
Versions: 1 2 3 4 5 6 7 8 9 10 11 12 13 14 15 16 17 18 19 20 21 22 23 24 25 26 27 28 29 30 31 32 33 34 35 36 37 38 39 40 41 42 43 44 45 46 47 48 49 50

000
ASUS45 KTFX 300804
RWRMT
MONTANA HOURLY WEATHER ROUNDUP
NATIONAL WEATHER SERVICE GREAT FALLS MT
104 AM MST FRI JAN 30 2015

NOTE: "FAIR" INDICATES FEW OR NO CLOUDS BELOW 12000 FEET WITH NO
SIGNIFICANT WEATHER AND/OR OBSTRUCTIONS TO VISIBILITY.

* THESE STATIONS ARE NOT UNDER NWS QUALITY CONTROL. THEY DO NOT
   REPORT WEATHER SUCH AS PRECIPITATION OR FOG.

MTZ001>007-043-300900-
WEST OF THE DIVIDE
CITY           SKY/WX    TMP DP  RH WIND       PRES   REMARKS
KALISPELL      FOG       12  10  92 CALM      30.37S VSB M1/4
MISSOULA       CLEAR     23  19  85 CALM      30.37S
BUTTE          PTCLDY    19  16  88 E6        30.29F WCI  11
MULLAN PASS    CLEAR     30  21  69 S5        30.26F WCI  25
* ANACONDA     PTCLDY    28  19  69 W5         N/A   WCI  22
* ESSEX        N/A       16  14  92 N/A        N/A
* LINCOLN      N/A       17  13  84 E1G6       N/A
* LOOKOUT PASS N/A       25  23  92 S2         N/A
* POLSON       N/A       24  23  96 N/A        N/A
* RONAN APT    CLEAR     21  19  92 N/A        N/A
* SEELEY LAKE  N/A       12   9  88 N/A        N/A
* THOMP F APT  CLEAR     27  19  72 NE5G10     N/A   WCI  21
$$

MTZ008-052>055-300900-
SOUTHWEST MONTANA
CITY           SKY/WX    TMP DP  RH WIND       PRES   REMARKS
BOZEMAN        PTCLDY    25  19  78 S6        30.29F WCI  18
DILLON         MOCLDY    25  19  78 S9        30.29S WCI  16
* W YELLOWSTON CLOUDY    12   9  88 N/A        N/A
* THREE FORKS  PTCLDY   N/A N/A N/A N/A        N/A
* BOULDER HILL N/A       29  16  58 S10        N/A   WCI  20
* MONIDA PASS  N/A       11  10  96 W4         N/A
* RAYNOLDS PAS N/A       18   9  68 N/A        N/A
* WHITEHALL    N/A       24  20  85 N4         N/A
* WISE RIVER   N/A       17  13  84 W3G8       N/A
$$

MTZ009>010-012-014-046-048-049-054-300900-
EAST SLOPES AND CENTRAL MONTANA
CITY           SKY/WX    TMP DP  RH WIND       PRES   REMARKS
CUT BANK       CLEAR     28  16  61 W10       30.19R WCI  19
GREAT FALLS    CLEAR     34  18  52 SW12      30.20F WCI  25
HELENA         CLEAR     27  23  85 W6        30.28F WCI  20
MALMSTROM AFB  CLEAR     30  19  64 SW9       30.21F WCI  22
* DEARBORN     N/A       33  22  64 S6         N/A   WCI  27
* EAST GLACIER N/A       33  11  40 W19G31     N/A   WCI  22
* MONARCH      N/A       27   7  42 SW1G6      N/A
* PENDROY      N/A       36   1  22 W13        N/A   WCI  27
* ROGERS PASS  N/A       29  18  63 S6G11      N/A   WCI  23
* SWEET GRASS  N/A       36  13  39 W15        N/A   WCI  27
$$

MTZ011-013-016-021-035-040-045-047-050-051-300900-
NORTH CENTRAL MONTANA
CITY           SKY/WX    TMP DP  RH WIND       PRES   REMARKS
HAVRE          CLEAR     27  25  92 W8        30.19S WCI  19
LEWISTOWN      CLEAR     25  16  69 S6        30.20F WCI  18
* CHESTER      N/A       27  24  88 E3         N/A
* DENTON       N/A       26  21  81 SW4        N/A
* GEYSER       N/A       32  12  43 W9         N/A   WCI  24
* JUDITH GAP   N/A       32  16  52 N4         N/A
* LOMA         N/A       31  24  75 SW4        N/A
$$

MTZ017>020-022>027-061-062-300900-
NORTHEAST MONTANA
CITY           SKY/WX    TMP DP  RH WIND       PRES   REMARKS
GLASGOW        PTCLDY    27  21  78 E8        30.16F WCI  19
GLENDIVE       PTCLDY    27  21  78 S7        30.21S WCI  19
JORDAN         PTCLDY    28  25  89 W3        30.17F
SIDNEY         PTCLDY    25  21  85 CALM      30.19F
WOLF POINT     PTCLDY    25  19  78 CALM      30.18F
* BEAVER HILL  N/A       35  20  54 S17        N/A   WCI  25
* CIRCLE       N/A       32  26  79 N/A        N/A
* LINDSAY DVD  N/A       36  24  62 S10        N/A   WCI  29
* NAVAJO       N/A       26  21  81 SW5        N/A   WCI  20
* SACO         N/A       21  19  92 W2         N/A
$$

MTZ028>042-056>058-300900-
SOUTHCENTRAL AND SOUTHEAST MONTANA
CITY           SKY/WX    TMP DP  RH WIND       PRES   REMARKS
BAKER          CLEAR     28  18  66 E5        30.21F WCI  22
BILLINGS       MOCLDY    36  28  73 SW14      30.21F WCI  27
LIVINGSTON     PTCLDY    37  19  48 W20G25    30.24F WCI  27
MILES CITY     PTCLDY    30  23  75 S8        30.20F WCI  22
* LAUREL APT   MOCLDY    36  23  59 S5         N/A   WCI  32
* ROUNDUP APT  PTCLDY    34  25  70 S6         N/A   WCI  29
* ALZADA       N/A       23  17  78 SE4        N/A
* HYSHAM       N/A       36  25  64 W4         N/A
* LAME DEER    N/A       39  24  55 W4         N/A
* REED POINT   N/A       26  25  96 N/A        N/A
* ROSCOE HILL  N/A       34   6  31 SW4        N/A
$$

REGIONAL REPORTS...DAKOTAS
CITY           SKY/WX    TMP DP  RH WIND       PRES   REMARKS
WILLISTON      PTCLDY    27  19  72 CALM      30.20F
DICKINSON      CLEAR     25  18  75 S12       30.21F WCI  14
CROSBY         CLEAR     25  23  92 S14       30.18F WCI  13
WATFORD CITY   CLEAR     27  19  72 CALM      30.17F
BISMARCK       CLEAR     19  18  96 SE9       30.36F WCI   8
GRAND FORKS    CLOUDY     7   0  73 SE8       30.52F WCI  -6
FARGO          PTCLDY     9   1  70 SE5       30.53F
BUFFALO SD     CLEAR     25  16  69 S9        30.18F WCI  16
RAPID CITY     PTCLDY    21  12  68 SE5       30.26F WCI  14
$$

REGIONAL REPORTS...WYOMING/IDAHO/WASHINGTON
CITY           SKY/WX    TMP DP  RH WIND       PRES   REMARKS
GILLETTE       PTCLDY    30  23  75 S9        30.21S WCI  22
SHERIDAN       PTCLDY    21  18  88 S5        30.23R WCI  14
CODY           PTCLDY    27  25  92 CALM      30.24F
YELLOWSTONE LA MOCLDY     1  -2  87 CALM      30.32F
SALMON         CLOUDY    21  19  92 CALM      30.38F
MULLAN PASS    CLEAR     30  21  69 S5        30.26S WCI  25
SAND POINT     CLEAR     27  27 100 CALM      30.40S
SPOKANE        FOG       27  27 100 N3        30.37S VSB M1/4

$$




USA.gov is the U.S. government's official web portal to all federal, state and local government web resources and services.